Regional Weather Roundup
Issued by NWS Albany, NY

Home | Current Version | Previous Version | Text Only | Print | Product List | Glossary On
Versions: 1 2 3 4 5 6 7 8 9 10 11 12 13 14 15 16 17 18 19 20 21 22 23 24 25 26 27 28 29 30 31 32 33 34 35 36 37 38 39 40 41 42 43 44 45 46 47 48 49
000
ASUS41 KALY 251710
RWRALY

NEW YORK STATE HOURLY WEATHER ROUNDUP
NATIONAL WEATHER SERVICE ALBANY NY
1200 PM EST SUN JAN 25 2015

NOTE: "FAIR" INDICATES FEW OR NO CLOUDS BELOW 12,000 FEET WITH NO
SIGNIFICANT WEATHER AND/OR NO OBSTRUCTIONS TO VISIBILITY.

NYZ032-033-038>043-046>054-057>066-NYZ062>081-251800-
EAST


CITY           SKY/WX    TMP DP  RH WIND       PRES   REMARKS
ALBANY         MOSUNNY   28   7  41 NW18      29.78R WCI  15
GLENS FALLS    SUNNY     24   6  46 N18       29.75R WCI  10
POUGHKEEPSIE   SUNNY     37  15  40 W16G22    29.74R WCI  28
NEWBURGH       MOSUNNY   34  18  51 NW17G29   29.75S WCI  23
MONTGOMERY     SUNNY     34  12  40 NW16      29.74R WCI  24
WHITE PLAINS   MOSUNNY   37  19  48 NW15G21   29.71R WCI  28
ISLIP          PTSUNNY   40  21  46 W20G26    29.70F WCI  30
NEW YORK CITY  PTSUNNY   41  18  39 NW16G24   29.75R
CENTRAL PARK   MOSUNNY   41  14  33 VRB3G26   29.77R
$$

NYZ005>009-017-018-044>046-055-056-251800-
CENTRAL


CITY           SKY/WX    TMP DP  RH WIND       PRES   REMARKS
FULTON         LGT SNOW  15   6  67 NW9       29.90S WCI   3
SYRACUSE       MOSUNNY   16   7  67 NW13G22   29.89R WCI   2
ROME           SUNNY     17   6  62 W13       29.86S WCI   4
ELMIRA         SUNNY     28   6  39 NW12      29.83R WCI  18
BINGHAMTON     PTSUNNY   20  11  68 NW10      29.77R WCI   9
MONTICELLO     SUNNY     27  10  50 W15G25    29.73R WCI  15
$$

NYZ026>034-041>043-251800-
NORTH


CITY           SKY/WX    TMP DP  RH WIND       PRES   REMARKS
WATERTOWN      SUNNY     13  -1  54 N8        29.92R WCI   2
FORT DRUM      NOT AVBL
MASSENA        MOSUNNY    7  -4  60 W10       29.90R WCI  -8
SARANAC LAKE   CLOUDY     4  -4  69 VRB7G17   29.69R WCI  -8
PLATTSBURGH    SUNNY     16  -1  47 W7G20     29.80R WCI   6
$$

NYZ001>004-010>016-019>021-251800-
WEST


CITY           SKY/WX    TMP DP  RH WIND       PRES   REMARKS
NIAGARA FALLS  FLURRIES  16   9  74 NE7       29.94R WCI   6
BUFFALO        FLURRIES  16   8  71 CALM      29.92S
DUNKIRK        CLOUDY    18  12  77 NE8       29.92F WCI   8
JAMESTOWN      PTSUNNY   19  12  73 N7        29.80F WCI  10
WELLSVILLE     SUNNY     23   4  44 N8        29.77S WCI  14
ROCHESTER      LGT SNOW  18  11  74 NW9       29.92R WCI   7
PENN YAN       LGT SNOW  21  12  68 W8        29.86R WCI  11
$$

             KEY
       WCI = WIND CHILL INDEX
       VSB = VISIBILITY
       HX  = HEAT INDEX
$$



USA.gov is the U.S. government's official web portal to all federal, state and local government web resources and services.